This is the latest recevied weather packets stored in our database for station/object W0SS-13. If no packets are shown the sender has not sent any weather packets the latest 10 day(s).
| Time | Temp. | Humidity | Pressure | Rain* | Wind** | Luminosity | Snow |
|---|---|---|---|---|---|---|---|
| 1777421052 | 15.56° C | 68% | 1014.8 hPa | 0 mm | - | 43 W/m² | - |
| 1777420749 | 16.11° C | 68% | 1014.9 hPa | 0 mm | - | 88 W/m² | - |
| 1777420445 | 15.56° C | 68% | 1014.9 hPa | 0 mm | - | 105 W/m² | - |
| 1777420141 | 15.56° C | 68% | 1014.5 hPa | 0 mm | - | 86 W/m² | - |
| 1777419837 | 15.56° C | 69% | 1014.8 hPa | 0 mm | - | 152 W/m² | - |
| 1777419535 | 15° C | 70% | 1014.7 hPa | 0 mm | - | 182 W/m² | - |
| 1777419234 | 15° C | 69% | 1014.9 hPa | 0 mm | - | 104 W/m² | - |
| 1777418931 | 15° C | 69% | 1014.6 hPa | 0 mm | - | 106 W/m² | - |
| 1777418626 | 15° C | 70% | 1014.8 hPa | 0 mm | - | 107 W/m² | - |
| 1777418323 | 15° C | 70% | 1014.7 hPa | 0 mm | - | 110 W/m² | - |
| 1777418019 | 15° C | 69% | 1014.8 hPa | 0 mm | - | 120 W/m² | - |
| 1777417714 | 15° C | 69% | 1014.9 hPa | 0 mm | - | 126 W/m² | - |
| 1777417410 | 14.44° C | 69% | 1014.6 hPa | 0 mm | - | 126 W/m² | - |
| 1777417106 | 14.44° C | 70% | 1014.5 hPa | 0 mm | - | 131 W/m² | - |
| 1777416801 | 14.44° C | 70% | 1014.7 hPa | 0 mm | - | 128 W/m² | - |
| 1777416497 | 14.44° C | 69% | 1014.7 hPa | 0 mm | - | 127 W/m² | - |
| 1777416194 | 14.44° C | 70% | 1014.8 hPa | 0 mm | - | 135 W/m² | - |
| 1777415887 | 14.44° C | 70% | 1014.8 hPa | 0 mm | - | 133 W/m² | - |
| 1777415579 | 14.44° C | 69% | 1014.6 hPa | 0 mm | - | 147 W/m² | - |
| 1777415274 | 14.44° C | 70% | 1014.7 hPa | 0 mm | - | 158 W/m² | - |
| 1777414969 | 14.44° C | 71% | 1014.9 hPa | 0 mm | - | 154 W/m² | - |
| 1777414669 | 14.44° C | 69% | 1014.9 hPa | 0 mm | - | 160 W/m² | - |
| 1777414364 | 14.44° C | 70% | 1014.8 hPa | 0 mm | - | 186 W/m² | - |
| 1777414059 | 14.44° C | 69% | 1015.1 hPa | 0 mm | - | 217 W/m² | - |
| 1777413758 | 13.89° C | 69% | 1014.7 hPa | 0 mm | - | 268 W/m² | - |
* Rain latest hour (hover to see other rain measurements)
** Current wind speed in m/s (hover to see current wind gust speed)